Location: Fond Mahaut
(18.0707°N, 63.0465°W)
Time: 14:14:32
(UTC+00:00)

Abrixas rocket - Pass Details

Date: 08 December 2019
Orbit: 354 x 364 km, 48.4° (Epoch: 19 January)

Event Time Altitude Azimuth Distance (km) Brightness Sun altitude
Rises 23:07:48 0° 253° (WSW) 2,181 7.5 -21.1°
Reaches altitude 10° 23:10:24 10° 278° (W) 1,333 5.7 -21.7°
Maximum altitude 23:12:16 15° 317° (NW) 1,065 4.6 -22.1°
Enters shadow 23:12:27 15° 321° (NW) 1,068 4.5 -22.2°
